Time,TemperatureF,DewpointF,PressureIn,WindDirection,WindDirectionDegrees,WindSpeedMPH,WindSpeedGustMPH,Humidity,HourlyPrecipIn,Conditions,Clouds,dailyrainin,SoftwareType,DateUTC
2013-05-29 00:01:00,79.1,74.9,29.87,ESE,120,15.0,24.0,87,0.00,,---,0.00,VWS V14.01,2013-05-29 05:01:00,
2013-05-29 00:06:00,79.1,74.9,29.87,SSE,159,13.0,21.0,87,0.00,,---,0.00,VWS V14.01,2013-05-29 05:06:00,
2013-05-29 00:11:00,79.2,75.0,29.87,East,85,16.0,22.0,87,0.00,,---,0.00,VWS V14.01,2013-05-29 05:11:00,
2013-05-29 00:16:00,79.1,74.9,29.87,SE,134,9.0,22.0,87,0.00,,---,0.00,VWS V14.01,2013-05-29 05:16:00,
2013-05-29 00:21:00,79.1,74.9,29.87,East,86,8.0,22.0,87,0.00,,---,0.00,VWS V14.01,2013-05-29 05:21:00,
2013-05-29 00:26:00,79.0,74.8,29.87,ESE,109,2.0,22.0,87,0.00,,---,0.00,VWS V14.01,2013-05-29 05:26:00,
2013-05-29 00:31:00,79.0,74.8,29.87,ESE,114,15.0,22.0,87,0.00,,---,0.00,VWS V14.01,2013-05-29 05:31:00,
2013-05-29 00:36:00,79.0,74.8,29.87,ESE,105,9.0,22.0,87,0.00,,---,0.00,VWS V14.01,2013-05-29 05:36:00,
2013-05-29 00:41:00,79.1,74.9,29.87,ENE,64,7.0,22.0,87,0.00,,---,0.00,VWS V14.01,2013-05-29 05:41:00,
2013-05-29 00:46:00,79.0,74.8,29.87,SSE,166,6.0,22.0,87,0.00,,---,0.00,VWS V14.01,2013-05-29 05:46:00,
2013-05-29 00:51:00,79.0,74.8,29.87,South,176,12.0,22.0,87,0.00,,---,0.00,VWS V14.01,2013-05-29 05:51:00,
2013-05-29 00:56:00,79.1,74.9,29.87,SE,134,12.0,22.0,87,0.00,,---,0.00,VWS V14.01,2013-05-29 05:56:00,
2013-05-29 01:01:00,79.1,75.2,29.87,SSE,154,8.0,22.0,88,0.00,,---,0.00,VWS V14.01,2013-05-29 06:01:00,
2013-05-29 01:06:00,79.1,75.2,29.87,SSE,148,6.0,18.0,88,0.00,,---,0.00,VWS V14.01,2013-05-29 06:06:00,
2013-05-29 01:11:00,79.1,75.2,29.86,SSE,149,11.0,20.0,88,0.00,,---,0.00,VWS V14.01,2013-05-29 06:11:00,
2013-05-29 01:16:00,79.0,75.2,29.85,East,92,11.0,23.0,88,0.00,,---,0.00,VWS V14.01,2013-05-29 06:16:00,
2013-05-29 01:21:00,79.0,75.2,29.86,ESE,103,17.0,23.0,88,0.00,,---,0.00,VWS V14.01,2013-05-29 06:21:00,
2013-05-29 01:26:00,79.0,75.2,29.86,SSE,163,7.0,23.0,88,0.00,,---,0.00,VWS V14.01,2013-05-29 06:26:00,
2013-05-29 01:31:00,79.0,75.2,29.86,ESE,120,11.0,25.0,88,0.00,,---,0.00,VWS V14.01,2013-05-29 06:31:00,
2013-05-29 01:36:00,79.1,75.2,29.86,SE,124,13.0,25.0,88,0.00,,---,0.00,VWS V14.01,2013-05-29 06:36:00,
2013-05-29 01:41:00,79.1,75.6,29.87,ESE,105,11.0,25.0,89,0.00,,---,0.00,VWS V14.01,2013-05-29 06:41:00,
2013-05-29 01:46:00,79.1,75.2,29.87,SE,144,9.0,25.0,88,0.00,,---,0.00,VWS V14.01,2013-05-29 06:46:00,
2013-05-29 01:51:00,79.0,75.2,29.87,ESE,121,13.0,25.0,88,0.00,,---,0.00,VWS V14.01,2013-05-29 06:51:00,
2013-05-29 01:56:00,79.1,75.2,29.87,ESE,105,12.0,25.0,88,0.00,,---,0.00,VWS V14.01,2013-05-29 06:56:00,
2013-05-29 02:01:00,79.1,75.2,29.87,SSE,147,9.0,25.0,88,0.00,,---,0.00,VWS V14.01,2013-05-29 07:01:00,
2013-05-29 02:06:00,79.0,75.2,29.87,ESE,107,15.0,17.0,88,0.00,,---,0.00,VWS V14.01,2013-05-29 07:06:00,
2013-05-29 02:11:00,79.1,75.2,29.87,ESE,115,9.0,17.0,88,0.00,,---,0.00,VWS V14.01,2013-05-29 07:11:00,
2013-05-29 02:16:00,79.1,75.2,29.87,SSE,153,8.0,19.0,88,0.00,,---,0.00,VWS V14.01,2013-05-29 07:16:00,
2013-05-29 02:21:00,79.0,75.2,29.87,SSE,155,6.0,19.0,88,0.00,,---,0.00,VWS V14.01,2013-05-29 07:21:00,
2013-05-29 02:26:00,79.1,75.2,29.88,SE,135,12.0,19.0,88,0.00,,---,0.00,VWS V14.01,2013-05-29 07:26:00,
2013-05-29 02:31:00,79.1,75.6,29.87,SSE,149,13.0,20.0,89,0.00,,---,0.00,VWS V14.01,2013-05-29 07:31:00,
2013-05-29 02:36:00,79.1,75.6,29.87,ESE,118,14.0,20.0,89,0.00,,---,0.00,VWS V14.01,2013-05-29 07:36:00,
2013-05-29 02:41:00,79.1,75.2,29.88,ESE,107,9.0,20.0,88,0.00,,---,0.00,VWS V14.01,2013-05-29 07:41:00,
2013-05-29 02:46:00,79.1,75.2,29.88,SSE,152,7.0,20.0,88,0.00,,---,0.00,VWS V14.01,2013-05-29 07:46:00,
2013-05-29 02:51:00,79.1,75.2,29.87,SE,129,5.0,20.0,88,0.00,,---,0.00,VWS V14.01,2013-05-29 07:51:00,
2013-05-29 02:56:00,79.1,75.6,29.87,SE,128,6.0,20.0,89,0.00,,---,0.00,VWS V14.01,2013-05-29 07:56:00,
2013-05-29 03:01:00,79.0,75.2,29.87,SE,127,7.0,20.0,88,0.00,,---,0.00,VWS V14.01,2013-05-29 08:01:00,
2013-05-29 03:06:00,79.0,75.2,29.87,SSE,162,9.0,19.0,88,0.00,,---,0.00,VWS V14.01,2013-05-29 08:06:00,
2013-05-29 03:11:00,79.0,75.5,29.87,SSE,148,4.0,19.0,89,0.00,,---,0.00,VWS V14.01,2013-05-29 08:11:00,
2013-05-29 03:16:00,79.0,75.5,29.87,SSE,163,5.0,19.0,89,0.00,,---,0.00,VWS V14.01,2013-05-29 08:16:00,
2013-05-29 03:21:00,79.1,75.6,29.87,SSW,193,6.0,19.0,89,0.00,,---,0.00,VWS V14.01,2013-05-29 08:21:00,
2013-05-29 03:26:00,79.1,75.6,29.87,SE,127,5.0,19.0,89,0.00,,---,0.00,VWS V14.01,2013-05-29 08:26:00,
2013-05-29 03:31:00,79.0,75.5,29.87,SE,137,6.0,19.0,89,0.00,,---,0.00,VWS V14.01,2013-05-29 08:31:00,
2013-05-29 03:36:00,79.0,75.5,29.87,SE,125,10.0,19.0,89,0.00,,---,0.00,VWS V14.01,2013-05-29 08:36:00,
2013-05-29 03:41:00,79.0,75.5,29.87,SE,139,12.0,19.0,89,0.00,,---,0.00,VWS V14.01,2013-05-29 08:41:00,
2013-05-29 03:46:00,79.0,75.5,29.87,SSE,149,5.0,19.0,89,0.00,,---,0.00,VWS V14.01,2013-05-29 08:46:00,
2013-05-29 03:51:00,79.1,75.6,29.87,ESE,117,10.0,19.0,89,0.00,,---,0.00,VWS V14.01,2013-05-29 08:51:00,
2013-05-29 03:56:00,79.0,75.5,29.88,SSE,150,7.0,19.0,89,0.00,,---,0.00,VWS V14.01,2013-05-29 08:56:00,
2013-05-29 04:01:00,79.0,75.2,29.88,South,169,10.0,19.0,88,0.00,,---,0.00,VWS V14.01,2013-05-29 09:01:00,
2013-05-29 04:06:00,79.1,75.6,29.87,SE,140,9.0,11.0,89,0.00,,---,0.00,VWS V14.01,2013-05-29 09:06:00,
2013-05-29 04:11:00,79.1,75.6,29.87,ESE,115,5.0,17.0,89,0.00,,---,0.00,VWS V14.01,2013-05-29 09:11:00,
2013-05-29 04:17:00,79.1,75.6,29.88,SSE,163,9.0,17.0,89,0.00,,---,0.00,VWS V14.01,2013-05-29 09:17:00,
2013-05-29 04:22:00,79.1,75.6,29.87,SE,146,8.0,17.0,89,0.00,,---,0.00,VWS V14.01,2013-05-29 09:22:00,
2013-05-29 04:26:00,79.1,75.6,29.87,SE,142,8.0,17.0,89,0.00,,---,0.00,VWS V14.01,2013-05-29 09:26:00,
2013-05-29 04:31:00,79.1,75.6,29.87,ESE,120,4.0,17.0,89,0.00,,---,0.00,VWS V14.01,2013-05-29 09:31:00,
2013-05-29 04:36:00,79.1,75.6,29.86,ESE,109,5.0,17.0,89,0.00,,---,0.00,VWS V14.01,2013-05-29 09:36:00,
2013-05-29 04:42:00,79.1,75.6,29.86,SSE,152,12.0,17.0,89,0.00,,---,0.00,VWS V14.01,2013-05-29 09:42:00,
2013-05-29 04:46:00,79.0,75.5,29.86,ESE,120,6.0,17.0,89,0.00,,---,0.00,VWS V14.01,2013-05-29 09:46:00,
2013-05-29 04:51:00,78.9,75.4,29.86,South,179,6.0,17.0,89,0.00,,---,0.00,VWS V14.01,2013-05-29 09:51:00,
2013-05-29 04:56:00,79.0,75.5,29.85,SE,132,9.0,17.0,89,0.00,,---,0.00,VWS V14.01,2013-05-29 09:56:00,
2013-05-29 05:01:00,79.0,75.5,29.85,SSE,167,9.0,17.0,89,0.00,,---,0.00,VWS V14.01,2013-05-29 10:01:00,
2013-05-29 05:06:00,79.0,75.5,29.86,SE,133,8.0,13.0,89,0.00,,---,0.00,VWS V14.01,2013-05-29 10:06:00,
2013-05-29 05:11:00,79.0,75.5,29.85,ESE,117,3.0,13.0,89,0.00,,---,0.00,VWS V14.01,2013-05-29 10:11:00,
2013-05-29 05:16:00,78.9,75.7,29.85,SSE,156,11.0,13.0,90,0.00,,---,0.00,VWS V14.01,2013-05-29 10:16:00,
2013-05-29 05:21:00,78.8,75.3,29.85,SE,134,2.0,14.0,89,0.00,,---,0.00,VWS V14.01,2013-05-29 10:21:00,
2013-05-29 05:26:00,78.9,75.4,29.85,South,188,6.0,14.0,89,0.00,,---,0.00,VWS V14.01,2013-05-29 10:26:00,
2013-05-29 05:31:00,78.9,75.7,29.85,East,79,3.0,15.0,90,0.00,,---,0.00,VWS V14.01,2013-05-29 10:31:00,
2013-05-29 05:36:00,78.8,75.6,29.86,ESE,118,11.0,15.0,90,0.00,,---,0.00,VWS V14.01,2013-05-29 10:36:00,
2013-05-29 05:41:00,78.9,75.7,29.85,ESE,121,4.0,15.0,90,0.00,,---,0.00,VWS V14.01,2013-05-29 10:41:00,
2013-05-29 05:46:00,78.9,75.7,29.85,ESE,122,5.0,15.0,90,0.00,,---,0.00,VWS V14.01,2013-05-29 10:46:00,
2013-05-29 05:51:00,78.9,75.7,29.85,SE,144,7.0,15.0,90,0.00,,---,0.00,VWS V14.01,2013-05-29 10:51:00,
2013-05-29 05:56:00,78.9,75.7,29.85,South,170,8.0,15.0,90,0.00,,---,0.00,VWS V14.01,2013-05-29 10:56:00,
2013-05-29 06:01:00,78.9,75.7,29.85,SSE,159,12.0,15.0,90,0.00,,---,0.00,VWS V14.01,2013-05-29 11:01:00,
2013-05-29 06:06:00,78.9,75.7,29.85,ESE,113,7.0,12.0,90,0.00,,---,0.00,VWS V14.01,2013-05-29 11:06:00,
2013-05-29 06:11:00,78.8,75.6,29.85,SE,126,11.0,14.0,90,0.00,,---,0.00,VWS V14.01,2013-05-29 11:11:00,
2013-05-29 06:16:00,78.8,75.6,29.85,SSE,148,5.0,14.0,90,0.00,,---,0.00,VWS V14.01,2013-05-29 11:16:00,
2013-05-29 06:21:00,78.9,75.7,29.85,SSE,156,9.0,14.0,90,0.00,,---,0.00,VWS V14.01,2013-05-29 11:21:00,
2013-05-29 06:26:00,78.9,75.7,29.85,South,169,8.0,14.0,90,0.00,,---,0.00,VWS V14.01,2013-05-29 11:26:00,
2013-05-29 06:31:00,78.9,75.7,29.85,ESE,106,8.0,16.0,90,0.00,,---,0.00,VWS V14.01,2013-05-29 11:31:00,
2013-05-29 06:36:00,78.9,75.7,29.85,SSE,158,8.0,16.0,90,0.00,,---,0.00,VWS V14.01,2013-05-29 11:36:00,
2013-05-29 06:41:00,78.9,75.7,29.86,South,170,8.0,16.0,90,0.00,,---,0.00,VWS V14.01,2013-05-29 11:41:00,
2013-05-29 06:46:00,79.0,75.8,29.86,South,169,6.0,16.0,90,0.00,,---,0.00,VWS V14.01,2013-05-29 11:46:00,
2013-05-29 06:51:00,78.9,75.7,29.86,SSE,152,9.0,16.0,90,0.00,,---,0.00,VWS V14.01,2013-05-29 11:51:00,
2013-05-29 06:56:00,79.0,75.8,29.86,SE,126,5.0,16.0,90,0.00,,---,0.00,VWS V14.01,2013-05-29 11:56:00,
2013-05-29 07:01:00,79.0,75.8,29.86,SE,129,7.0,16.0,90,0.00,,---,0.00,VWS V14.01,2013-05-29 12:01:00,
2013-05-29 07:06:00,79.0,75.8,29.86,SSE,160,8.0,13.0,90,0.00,,---,0.00,VWS V14.01,2013-05-29 12:06:00,
2013-05-29 07:11:00,79.1,76.2,29.86,SE,139,8.0,13.0,91,0.00,,---,0.00,VWS V14.01,2013-05-29 12:11:00,
2013-05-29 07:16:00,79.0,75.8,29.86,ESE,110,4.0,15.0,90,0.00,,---,0.00,VWS V14.01,2013-05-29 12:16:00,
2013-05-29 07:21:00,79.1,75.9,29.86,SSE,148,7.0,15.0,90,0.00,,---,0.00,VWS V14.01,2013-05-29 12:21:00,
2013-05-29 07:26:00,79.2,76.0,29.86,SE,135,14.0,17.0,90,0.00,,---,0.00,VWS V14.01,2013-05-29 12:26:00,
2013-05-29 07:31:00,79.3,75.8,29.86,SSE,148,7.0,17.0,89,0.00,,---,0.00,VWS V14.01,2013-05-29 12:31:00,
2013-05-29 07:37:00,79.4,75.9,29.86,ESE,113,10.0,17.0,89,0.00,,---,0.00,VWS V14.01,2013-05-29 12:37:00,
2013-05-29 07:41:00,79.5,76.0,29.86,East,95,13.0,17.0,89,0.00,,---,0.00,VWS V14.01,2013-05-29 12:41:00,
2013-05-29 07:47:00,79.6,76.4,29.86,SSW,198,5.0,17.0,90,0.00,,---,0.00,VWS V14.01,2013-05-29 12:47:00,
2013-05-29 07:52:00,79.7,76.2,29.86,SSE,150,4.0,17.0,89,0.00,,---,0.00,VWS V14.01,2013-05-29 12:52:00,
2013-05-29 07:57:00,79.8,76.3,29.86,ESE,119,9.0,17.0,89,0.00,,---,0.00,VWS V14.01,2013-05-29 12:57:00,
2013-05-29 08:02:00,79.8,76.3,29.86,SSE,157,10.0,17.0,89,0.00,,---,0.00,VWS V14.01,2013-05-29 13:02:00,
2013-05-29 08:07:00,79.8,75.9,29.86,South,179,14.0,17.0,88,0.00,,---,0.00,VWS V14.01,2013-05-29 13:07:00,
2013-05-29 08:12:00,79.8,76.3,29.86,SSE,158,11.0,17.0,89,0.00,,---,0.00,VWS V14.01,2013-05-29 13:12:00,
2013-05-29 08:17:00,79.8,75.9,29.86,SE,146,8.0,17.0,88,0.00,,---,0.00,VWS V14.01,2013-05-29 13:17:00,
2013-05-29 08:22:00,79.7,75.8,29.86,ESE,122,11.0,17.0,88,0.00,,---,0.00,VWS V14.01,2013-05-29 13:22:00,
2013-05-29 08:27:00,79.6,76.1,29.87,SSE,159,12.0,17.0,89,0.00,,---,0.00,VWS V14.01,2013-05-29 13:27:00,
2013-05-29 08:32:00,79.8,76.3,29.87,SSE,168,10.0,17.0,89,0.00,,---,0.00,VWS V14.01,2013-05-29 13:32:00,
2013-05-29 08:37:00,80.1,76.6,29.87,SSE,148,11.0,17.0,89,0.00,,---,0.00,VWS V14.01,2013-05-29 13:37:00,
2013-05-29 08:42:00,80.4,76.2,29.88,SSE,157,10.0,17.0,87,0.00,,---,0.00,VWS V14.01,2013-05-29 13:42:00,
2013-05-29 08:47:00,80.6,76.4,29.88,SSE,159,13.0,17.0,87,0.00,,---,0.00,VWS V14.01,2013-05-29 13:47:00,
2013-05-29 08:53:00,80.6,76.4,29.88,SSE,158,12.0,17.0,87,0.00,,---,0.00,VWS V14.01,2013-05-29 13:53:00,
2013-05-29 08:58:00,80.9,76.7,29.88,SSE,158,16.0,18.0,87,0.00,,---,0.00,VWS V14.01,2013-05-29 13:58:00,
2013-05-29 09:03:00,81.4,76.5,29.88,ESE,110,10.0,12.0,85,0.00,,---,0.00,VWS V14.01,2013-05-29 14:03:00,
2013-05-29 09:08:00,81.6,76.7,29.88,SSE,157,12.0,19.0,85,0.00,,---,0.00,VWS V14.01,2013-05-29 14:08:00,
2013-05-29 09:13:00,81.4,76.5,29.88,SSE,150,12.0,19.0,85,0.00,,---,0.00,VWS V14.01,2013-05-29 14:13:00,
2013-05-29 09:18:00,81.4,76.5,29.87,South,184,7.0,19.0,85,0.00,,---,0.00,VWS V14.01,2013-05-29 14:18:00,
2013-05-29 09:23:00,81.4,76.1,29.87,SE,143,16.0,19.0,84,0.00,,---,0.00,VWS V14.01,2013-05-29 14:23:00,
2013-05-29 09:28:00,81.5,76.6,29.88,SSE,152,7.0,19.0,85,0.00,,---,0.00,VWS V14.01,2013-05-29 14:28:00,
2013-05-29 09:33:00,81.5,76.6,29.88,SE,127,14.0,19.0,85,0.00,,---,0.00,VWS V14.01,2013-05-29 14:33:00,
2013-05-29 09:38:00,81.4,76.5,29.88,SSE,155,13.0,20.0,85,0.00,,---,0.00,VWS V14.01,2013-05-29 14:38:00,
2013-05-29 09:43:00,81.3,76.7,29.88,South,175,10.0,20.0,86,0.00,,---,0.00,VWS V14.01,2013-05-29 14:43:00,
2013-05-29 09:48:00,81.4,76.5,29.88,South,191,10.0,20.0,85,0.00,,---,0.00,VWS V14.01,2013-05-29 14:48:00,
2013-05-29 09:53:00,81.6,76.7,29.87,SSW,213,11.0,20.0,85,0.00,,---,0.00,VWS V14.01,2013-05-29 14:53:00,
2013-05-29 09:58:00,81.3,76.4,29.87,South,171,14.0,21.0,85,0.00,,---,0.00,VWS V14.01,2013-05-29 14:58:00,
2013-05-29 10:03:00,81.1,76.2,29.87,South,175,16.0,21.0,85,0.00,,---,0.00,VWS V14.01,2013-05-29 15:03:00,
2013-05-29 10:08:00,81.0,76.1,29.87,ESE,122,11.0,21.0,85,0.00,,---,0.00,VWS V14.01,2013-05-29 15:08:00,
2013-05-29 10:13:00,81.6,77.0,29.86,SE,127,14.0,21.0,86,0.00,,---,0.00,VWS V14.01,2013-05-29 15:13:00,
2013-05-29 10:18:00,81.6,76.7,29.87,South,179,6.0,21.0,85,0.00,,---,0.00,VWS V14.01,2013-05-29 15:18:00,
2013-05-29 10:23:00,81.5,76.2,29.87,SSW,197,10.0,21.0,84,0.00,,---,0.00,VWS V14.01,2013-05-29 15:23:00,
2013-05-29 10:28:00,81.4,76.1,29.87,SSE,150,7.0,22.0,84,0.00,,---,0.00,VWS V14.01,2013-05-29 15:28:00,
2013-05-29 10:33:00,81.2,76.3,29.87,SSE,155,17.0,22.0,85,0.00,,---,0.00,VWS V14.01,2013-05-29 15:33:00,
2013-05-29 10:38:00,81.3,76.7,29.87,East,89,9.0,22.0,86,0.00,,---,0.00,VWS V14.01,2013-05-29 15:38:00,
2013-05-29 10:44:00,81.2,76.3,29.87,SE,130,11.0,22.0,85,0.00,,---,0.00,VWS V14.01,2013-05-29 15:44:00,
2013-05-29 10:49:00,81.2,76.3,29.86,SSE,155,6.0,22.0,85,0.00,,---,0.00,VWS V14.01,2013-05-29 15:49:00,
2013-05-29 10:54:00,81.1,76.5,29.86,SSW,200,10.0,22.0,86,0.00,,---,0.00,VWS V14.01,2013-05-29 15:54:00,
2013-05-29 10:59:00,81.0,76.4,29.86,SSE,149,14.0,22.0,86,0.00,,---,0.00,VWS V14.01,2013-05-29 15:59:00,
2013-05-29 11:04:00,80.9,76.3,29.86,SE,143,10.0,15.0,86,0.00,,---,0.00,VWS V14.01,2013-05-29 16:04:00,
2013-05-29 11:09:00,80.9,76.3,29.86,SSE,162,12.0,18.0,86,0.00,,---,0.00,VWS V14.01,2013-05-29 16:09:00,
2013-05-29 11:14:00,81.0,76.4,29.86,SSE,154,14.0,18.0,86,0.00,,---,0.00,VWS V14.01,2013-05-29 16:14:00,
2013-05-29 11:19:00,81.0,76.4,29.86,East,86,13.0,20.0,86,0.00,,---,0.00,VWS V14.01,2013-05-29 16:19:00,
2013-05-29 11:24:00,81.0,76.4,29.86,South,179,13.0,20.0,86,0.00,,---,0.00,VWS V14.01,2013-05-29 16:24:00,
2013-05-29 11:29:00,81.0,76.4,29.86,South,176,7.0,21.0,86,0.00,,---,0.00,VWS V14.01,2013-05-29 16:29:00,
2013-05-29 11:34:00,81.0,76.4,29.86,SSE,150,7.0,21.0,86,0.00,,---,0.00,VWS V14.01,2013-05-29 16:34:00,
2013-05-29 11:39:00,81.0,76.4,29.86,WSW,238,11.0,21.0,86,0.00,,---,0.00,VWS V14.01,2013-05-29 16:39:00,
2013-05-29 11:44:00,81.0,76.1,29.86,SE,124,20.0,21.0,85,0.00,,---,0.00,VWS V14.01,2013-05-29 16:44:00,
2013-05-29 11:49:00,81.0,76.1,29.86,SSE,158,16.0,21.0,85,0.00,,---,0.00,VWS V14.01,2013-05-29 16:49:00,
2013-05-29 11:54:00,81.0,76.1,29.86,SSE,150,17.0,23.0,85,0.00,,---,0.00,VWS V14.01,2013-05-29 16:54:00,
2013-05-29 11:59:00,81.4,76.1,29.86,ESE,118,17.0,23.0,84,0.00,,---,0.00,VWS V14.01,2013-05-29 16:59:00,
2013-05-29 12:04:00,81.6,76.3,29.86,SE,143,15.0,22.0,84,0.00,,---,0.00,VWS V14.01,2013-05-29 17:04:00,
2013-05-29 12:09:00,81.7,76.4,29.85,SE,146,7.0,23.0,84,0.00,,---,0.00,VWS V14.01,2013-05-29 17:09:00,
2013-05-29 12:14:00,81.7,76.4,29.85,SE,141,11.0,23.0,84,0.00,,---,0.00,VWS V14.01,2013-05-29 17:14:00,
2013-05-29 12:19:00,81.7,76.0,29.85,South,174,17.0,23.0,83,0.00,,---,0.00,VWS V14.01,2013-05-29 17:19:00,
2013-05-29 12:24:00,81.6,76.3,29.84,ENE,78,11.0,23.0,84,0.00,,---,0.00,VWS V14.01,2013-05-29 17:24:00,
2013-05-29 12:29:00,81.8,76.5,29.84,South,185,5.0,23.0,84,0.00,,---,0.00,VWS V14.01,2013-05-29 17:29:00,
2013-05-29 12:34:00,81.8,76.5,29.85,South,174,15.0,23.0,84,0.00,,---,0.00,VWS V14.01,2013-05-29 17:34:00,
2013-05-29 12:39:00,81.7,76.0,29.85,ESE,117,8.0,23.0,83,0.00,,---,0.00,VWS V14.01,2013-05-29 17:39:00,
2013-05-29 12:44:00,81.5,76.2,29.85,SE,127,12.0,23.0,84,0.00,,---,0.00,VWS V14.01,2013-05-29 17:44:00,
2013-05-29 12:49:00,81.2,75.9,29.85,ESE,122,10.0,23.0,84,0.00,,---,0.00,VWS V14.01,2013-05-29 17:49:00,
2013-05-29 12:54:00,81.4,76.8,29.85,SE,145,17.0,23.0,86,0.00,,---,0.00,VWS V14.01,2013-05-29 17:54:00,
2013-05-29 12:59:00,81.3,76.4,29.85,SSE,149,9.0,23.0,85,0.00,,---,0.00,VWS V14.01,2013-05-29 17:59:00,
2013-05-29 13:04:00,81.6,76.7,29.85,East,100,7.0,13.0,85,0.00,,---,0.00,VWS V14.01,2013-05-29 18:04:00,
2013-05-29 13:09:00,81.5,75.8,29.85,ESE,116,18.0,22.0,83,0.00,,---,0.00,VWS V14.01,2013-05-29 18:09:00,
2013-05-29 13:14:00,81.4,76.1,29.85,SE,145,6.0,22.0,84,0.00,,---,0.00,VWS V14.01,2013-05-29 18:14:00,
2013-05-29 13:19:00,81.4,76.5,29.85,South,176,10.0,22.0,85,0.00,,---,0.00,VWS V14.01,2013-05-29 18:19:00,
2013-05-29 13:24:00,81.5,76.2,29.84,South,177,10.0,22.0,84,0.00,,---,0.00,VWS V14.01,2013-05-29 18:24:00,
2013-05-29 13:29:00,81.6,76.3,29.84,East,86,8.0,22.0,84,0.00,,---,0.00,VWS V14.01,2013-05-29 18:29:00,
2013-05-29 13:34:00,81.6,76.3,29.84,SE,145,13.0,22.0,84,0.00,,---,0.00,VWS V14.01,2013-05-29 18:34:00,
2013-05-29 13:39:00,81.5,76.2,29.84,SE,143,13.0,22.0,84,0.00,,---,0.00,VWS V14.01,2013-05-29 18:39:00,
2013-05-29 13:44:00,81.3,76.0,29.84,SE,143,12.0,23.0,84,0.00,,---,0.00,VWS V14.01,2013-05-29 18:44:00,
2013-05-29 13:49:00,81.1,76.2,29.84,South,178,5.0,23.0,85,0.00,,---,0.00,VWS V14.01,2013-05-29 18:49:00,
2013-05-29 13:54:00,81.2,76.3,29.84,SE,145,9.0,23.0,85,0.00,,---,0.00,VWS V14.01,2013-05-29 18:54:00,
2013-05-29 13:59:00,81.1,76.5,29.84,ESE,117,8.0,23.0,86,0.00,,---,0.00,VWS V14.01,2013-05-29 18:59:00,
2013-05-29 14:04:00,81.0,76.4,29.84,ESE,111,9.0,15.0,86,0.00,,---,0.00,VWS V14.01,2013-05-29 19:04:00,
2013-05-29 14:10:00,81.0,76.4,29.83,SE,145,13.0,19.0,86,0.00,,---,0.00,VWS V14.01,2013-05-29 19:10:00,
2013-05-29 14:15:00,81.0,76.4,29.84,SE,143,21.0,21.0,86,0.00,,---,0.00,VWS V14.01,2013-05-29 19:15:00,
2013-05-29 14:20:00,81.0,76.4,29.84,SE,145,11.0,21.0,86,0.00,,---,0.00,VWS V14.01,2013-05-29 19:20:00,
2013-05-29 14:25:00,81.1,76.2,29.84,SE,145,14.0,21.0,85,0.00,,---,0.00,VWS V14.01,2013-05-29 19:25:00,
2013-05-29 14:30:00,81.0,76.4,29.83,SE,144,7.0,21.0,86,0.00,,---,0.00,VWS V14.01,2013-05-29 19:30:00,
2013-05-29 14:35:00,80.9,76.3,29.83,East,94,14.0,22.0,86,0.00,,---,0.00,VWS V14.01,2013-05-29 19:35:00,
2013-05-29 14:40:00,80.9,76.7,29.82,SE,135,8.0,22.0,87,0.00,,---,0.00,VWS V14.01,2013-05-29 19:40:00,
2013-05-29 14:45:00,80.9,76.7,29.82,SE,134,16.0,22.0,87,0.00,,---,0.00,VWS V14.01,2013-05-29 19:45:00,
2013-05-29 14:50:00,80.9,76.3,29.82,SE,138,11.0,22.0,86,0.00,,---,0.00,VWS V14.01,2013-05-29 19:50:00,
2013-05-29 14:55:00,80.9,76.7,29.82,ESE,105,13.0,22.0,87,0.00,,---,0.00,VWS V14.01,2013-05-29 19:55:00,
2013-05-29 15:00:00,80.8,76.6,29.82,ESE,107,6.0,22.0,87,0.00,,---,0.00,VWS V14.01,2013-05-29 20:00:00,
2013-05-29 15:05:00,80.8,76.6,29.81,SE,137,8.0,22.0,87,0.00,,---,0.00,VWS V14.01,2013-05-29 20:05:00,
2013-05-29 15:10:00,80.9,76.7,29.81,East,86,13.0,22.0,87,0.00,,---,0.00,VWS V14.01,2013-05-29 20:10:00,
2013-05-29 15:15:00,80.8,76.6,29.81,ESE,102,12.0,22.0,87,0.00,,---,0.00,VWS V14.01,2013-05-29 20:15:00,
2013-05-29 15:20:00,80.9,76.7,29.80,SSE,166,8.0,22.0,87,0.00,,---,0.00,VWS V14.01,2013-05-29 20:20:00,
2013-05-29 15:25:00,80.8,76.6,29.80,South,190,18.0,23.0,87,0.00,,---,0.00,VWS V14.01,2013-05-29 20:25:00,
2013-05-29 15:30:00,80.7,76.5,29.79,SSE,163,18.0,23.0,87,0.00,,---,0.00,VWS V14.01,2013-05-29 20:30:00,
2013-05-29 15:35:00,80.7,76.8,29.79,SSE,162,15.0,23.0,88,0.00,,---,0.00,VWS V14.01,2013-05-29 20:35:00,
2013-05-29 15:40:00,80.7,76.8,29.80,ESE,103,9.0,23.0,88,0.00,,---,0.00,VWS V14.01,2013-05-29 20:40:00,
2013-05-29 15:45:00,80.7,76.5,29.80,SSE,165,8.0,23.0,87,0.00,,---,0.00,VWS V14.01,2013-05-29 20:45:00,
2013-05-29 15:50:00,80.9,76.7,29.80,ESE,111,15.0,23.0,87,0.00,,---,0.00,VWS V14.01,2013-05-29 20:50:00,
2013-05-29 15:55:00,80.9,76.7,29.80,SSE,154,16.0,23.0,87,0.00,,---,0.00,VWS V14.01,2013-05-29 20:55:00,
2013-05-29 16:00:00,81.1,76.9,29.80,South,172,6.0,23.0,87,0.00,,---,0.00,VWS V14.01,2013-05-29 21:00:00,
2013-05-29 16:05:00,81.2,77.0,29.81,SSE,159,7.0,19.0,87,0.00,,---,0.00,VWS V14.01,2013-05-29 21:05:00,
2013-05-29 16:10:00,81.5,77.3,29.81,SE,136,7.0,19.0,87,0.00,,---,0.00,VWS V14.01,2013-05-29 21:10:00,
2013-05-29 16:15:00,81.5,76.9,29.81,SSE,150,16.0,21.0,86,0.00,,---,0.00,VWS V14.01,2013-05-29 21:15:00,
2013-05-29 16:20:00,81.5,77.3,29.81,SSE,154,5.0,21.0,87,0.00,,---,0.00,VWS V14.01,2013-05-29 21:20:00,
2013-05-29 16:25:00,81.5,76.9,29.80,SE,142,7.0,21.0,86,0.00,,---,0.00,VWS V14.01,2013-05-29 21:25:00,
2013-05-29 16:30:00,81.2,76.6,29.80,ESE,120,4.0,21.0,86,0.00,,---,0.00,VWS V14.01,2013-05-29 21:30:00,
2013-05-29 16:35:00,81.1,76.5,29.80,SSE,156,14.0,21.0,86,0.00,,---,0.00,VWS V14.01,2013-05-29 21:35:00,
2013-05-29 16:40:00,81.2,76.6,29.80,ESE,118,7.0,21.0,86,0.00,,---,0.00,VWS V14.01,2013-05-29 21:40:00,
2013-05-29 16:45:00,81.3,76.7,29.81,East,99,14.0,21.0,86,0.00,,---,0.00,VWS V14.01,2013-05-29 21:45:00,
2013-05-29 16:50:00,81.3,76.7,29.80,ESE,117,7.0,21.0,86,0.00,,---,0.00,VWS V14.01,2013-05-29 21:50:00,
2013-05-29 16:55:00,81.0,76.8,29.80,ESE,105,6.0,21.0,87,0.00,,---,0.00,VWS V14.01,2013-05-29 21:55:00,
2013-05-29 17:00:00,80.9,76.7,29.80,SE,127,8.0,21.0,87,0.00,,---,0.00,VWS V14.01,2013-05-29 22:00:00,
2013-05-29 17:05:00,80.7,76.5,29.79,ESE,120,18.0,22.0,87,0.00,,---,0.00,VWS V14.01,2013-05-29 22:05:00,
2013-05-29 17:10:00,80.6,76.4,29.79,SE,130,9.0,22.0,87,0.00,,---,0.00,VWS V14.01,2013-05-29 22:10:00,
2013-05-29 17:16:00,80.6,76.7,29.78,ESE,122,7.0,22.0,88,0.00,,---,0.00,VWS V14.01,2013-05-29 22:16:00,
2013-05-29 17:21:00,80.6,76.7,29.79,SE,146,10.0,22.0,88,0.00,,---,0.00,VWS V14.01,2013-05-29 22:21:00,
2013-05-29 17:26:00,80.7,76.8,29.79,ESE,121,5.0,22.0,88,0.00,,---,0.00,VWS V14.01,2013-05-29 22:26:00,
2013-05-29 17:31:00,80.7,76.8,29.80,SE,130,12.0,22.0,88,0.00,,---,0.00,VWS V14.01,2013-05-29 22:31:00,
2013-05-29 17:36:00,80.9,77.0,29.80,SSE,150,6.0,22.0,88,0.00,,---,0.00,VWS V14.01,2013-05-29 22:36:00,
2013-05-29 17:41:00,81.3,76.7,29.79,SE,129,5.0,22.0,86,0.00,,---,0.00,VWS V14.01,2013-05-29 22:41:00,
2013-05-29 17:46:00,81.5,76.9,29.80,SE,138,4.0,22.0,86,0.00,,---,0.00,VWS V14.01,2013-05-29 22:46:00,
2013-05-29 17:51:00,81.7,77.1,29.80,ESE,118,6.0,22.0,86,0.00,,---,0.00,VWS V14.01,2013-05-29 22:51:00,
2013-05-29 17:56:00,81.5,76.9,29.80,ESE,110,15.0,22.0,86,0.00,,---,0.00,VWS V14.01,2013-05-29 22:56:00,
2013-05-29 18:01:00,81.7,77.1,29.80,SSW,197,13.0,22.0,86,0.00,,---,0.00,VWS V14.01,2013-05-29 23:01:00,
2013-05-29 18:06:00,81.5,76.6,29.80,SE,139,7.0,14.0,85,0.00,,---,0.00,VWS V14.01,2013-05-29 23:06:00,
2013-05-29 18:11:00,81.4,76.5,29.80,SSE,150,5.0,16.0,85,0.00,,---,0.00,VWS V14.01,2013-05-29 23:11:00,
2013-05-29 18:16:00,81.5,76.9,29.80,SE,130,6.0,16.0,86,0.00,,---,0.00,VWS V14.01,2013-05-29 23:16:00,
2013-05-29 18:21:00,81.4,76.5,29.80,SSE,156,12.0,16.0,85,0.00,,---,0.00,VWS V14.01,2013-05-29 23:21:00,
2013-05-29 18:26:00,81.4,76.8,29.80,SSE,148,8.0,16.0,86,0.00,,---,0.00,VWS V14.01,2013-05-29 23:26:00,
2013-05-29 18:31:00,81.3,76.7,29.80,ESE,122,10.0,16.0,86,0.00,,---,0.00,VWS V14.01,2013-05-29 23:31:00,
2013-05-29 18:36:00,81.2,76.6,29.80,SE,126,11.0,16.0,86,0.00,,---,0.00,VWS V14.01,2013-05-29 23:36:00,
2013-05-29 18:41:00,81.0,76.4,29.80,SSE,156,13.0,16.0,86,0.00,,---,0.00,VWS V14.01,2013-05-29 23:41:00,
2013-05-29 18:46:00,80.9,76.7,29.80,ESE,122,12.0,16.0,87,0.00,,---,0.00,VWS V14.01,2013-05-29 23:46:00,
2013-05-29 18:51:00,80.8,76.6,29.80,SE,142,14.0,19.0,87,0.00,,---,0.00,VWS V14.01,2013-05-29 23:51:00,
2013-05-29 18:56:00,80.7,76.5,29.80,ESE,110,11.0,19.0,87,0.00,,---,0.00,VWS V14.01,2013-05-29 23:56:00,
2013-05-29 19:01:00,80.7,76.5,29.80,SSE,150,5.0,19.0,87,0.00,,---,0.00,VWS V14.01,2013-05-30 00:01:00,
2013-05-29 19:06:00,80.5,76.3,29.80,ESE,116,17.0,17.0,87,0.00,,---,0.00,VWS V14.01,2013-05-30 00:06:00,
2013-05-29 19:11:00,80.4,76.2,29.80,SE,133,11.0,17.0,87,0.00,,---,0.00,VWS V14.01,2013-05-30 00:11:00,
2013-05-29 19:16:00,80.4,76.5,29.80,ESE,118,11.0,17.0,88,0.00,,---,0.00,VWS V14.01,2013-05-30 00:16:00,
2013-05-29 19:21:00,80.3,76.4,29.80,ESE,123,10.0,17.0,88,0.00,,---,0.00,VWS V14.01,2013-05-30 00:21:00,
2013-05-29 19:26:00,80.3,76.4,29.80,ESE,113,9.0,17.0,88,0.00,,---,0.00,VWS V14.01,2013-05-30 00:26:00,
2013-05-29 19:31:00,80.2,76.3,29.80,East,84,5.0,17.0,88,0.00,,---,0.00,VWS V14.01,2013-05-30 00:31:00,
2013-05-29 19:36:00,80.2,76.3,29.80,SSE,150,12.0,17.0,88,0.00,,---,0.00,VWS V14.01,2013-05-30 00:36:00,
2013-05-29 19:41:00,80.1,76.2,29.80,SE,124,7.0,17.0,88,0.00,,---,0.00,VWS V14.01,2013-05-30 00:41:00,
2013-05-29 19:46:00,80.0,76.1,29.80,SE,139,8.0,17.0,88,0.00,,---,0.00,VWS V14.01,2013-05-30 00:46:00,
2013-05-29 19:51:00,79.9,76.0,29.80,SE,138,13.0,18.0,88,0.00,,---,0.00,VWS V14.01,2013-05-30 00:51:00,
2013-05-29 19:56:00,79.9,76.4,29.80,SE,128,13.0,18.0,89,0.00,,---,0.00,VWS V14.01,2013-05-30 00:56:00,
2013-05-29 20:01:00,79.8,75.9,29.80,SE,129,11.0,18.0,88,0.00,,---,0.00,VWS V14.01,2013-05-30 01:01:00,
2013-05-29 20:06:00,79.7,75.8,29.80,SSE,149,8.0,15.0,88,0.00,,---,0.00,VWS V14.01,2013-05-30 01:06:00,
2013-05-29 20:11:00,79.7,75.8,29.81,South,170,3.0,15.0,88,0.00,,---,0.00,VWS V14.01,2013-05-30 01:11:00,
2013-05-29 20:16:00,79.6,75.7,29.81,SE,143,6.0,17.0,88,0.00,,---,0.00,VWS V14.01,2013-05-30 01:16:00,
2013-05-29 20:21:00,79.7,76.2,29.81,SE,139,6.0,17.0,89,0.00,,---,0.00,VWS V14.01,2013-05-30 01:21:00,
2013-05-29 20:26:00,79.6,76.1,29.81,SE,132,10.0,17.0,89,0.00,,---,0.00,VWS V14.01,2013-05-30 01:26:00,
2013-05-29 20:31:00,79.6,76.1,29.81,ENE,68,6.0,17.0,89,0.00,,---,0.00,VWS V14.01,2013-05-30 01:31:00,
2013-05-29 20:36:00,79.6,75.7,29.81,SSE,160,7.0,17.0,88,0.00,,---,0.00,VWS V14.01,2013-05-30 01:36:00,
2013-05-29 20:41:00,79.6,76.1,29.81,ESE,123,8.0,17.0,89,0.00,,---,0.00,VWS V14.01,2013-05-30 01:41:00,
2013-05-29 20:46:00,79.6,76.1,29.81,SE,125,12.0,17.0,89,0.00,,---,0.00,VWS V14.01,2013-05-30 01:46:00,
2013-05-29 20:51:00,79.6,76.1,29.81,SE,146,7.0,17.0,89,0.00,,---,0.00,VWS V14.01,2013-05-30 01:51:00,
2013-05-29 20:56:00,79.6,76.1,29.81,ESE,122,10.0,17.0,89,0.00,,---,0.00,VWS V14.01,2013-05-30 01:56:00,
2013-05-29 21:01:00,79.5,76.0,29.81,SE,139,8.0,17.0,89,0.00,,---,0.00,VWS V14.01,2013-05-30 02:01:00,
2013-05-29 21:06:00,79.5,76.0,29.81,ESE,109,8.0,17.0,89,0.00,,---,0.00,VWS V14.01,2013-05-30 02:06:00,
2013-05-29 21:11:00,79.5,76.0,29.81,ESE,122,10.0,17.0,89,0.00,,---,0.00,VWS V14.01,2013-05-30 02:11:00,
2013-05-29 21:16:00,79.5,76.0,29.81,ESE,115,6.0,17.0,89,0.00,,---,0.00,VWS V14.01,2013-05-30 02:16:00,
2013-05-29 21:21:00,79.5,76.0,29.81,SE,129,3.0,17.0,89,0.00,,---,0.00,VWS V14.01,2013-05-30 02:21:00,
2013-05-29 21:27:00,79.6,76.1,29.82,ENE,71,6.0,17.0,89,0.00,,---,0.00,VWS V14.01,2013-05-30 02:27:00,
2013-05-29 21:32:00,79.5,76.0,29.82,ESE,105,16.0,19.0,89,0.00,,---,0.00,VWS V14.01,2013-05-30 02:32:00,
2013-05-29 21:37:00,79.6,76.1,29.82,South,183,4.0,19.0,89,0.00,,---,0.00,VWS V14.01,2013-05-30 02:37:00,
2013-05-29 21:42:00,79.6,76.1,29.81,SE,139,9.0,19.0,89,0.00,,---,0.00,VWS V14.01,2013-05-30 02:42:00,
2013-05-29 21:47:00,79.6,76.1,29.81,ESE,111,8.0,19.0,89,0.00,,---,0.00,VWS V14.01,2013-05-30 02:47:00,
2013-05-29 21:52:00,79.6,76.1,29.82,ESE,122,5.0,19.0,89,0.00,,---,0.00,VWS V14.01,2013-05-30 02:52:00,
2013-05-29 21:57:00,79.5,75.6,29.82,ESE,122,10.0,19.0,88,0.00,,---,0.00,VWS V14.01,2013-05-30 02:57:00,
2013-05-29 22:02:00,79.5,75.6,29.82,SE,134,5.0,19.0,88,0.00,,---,0.00,VWS V14.01,2013-05-30 03:02:00,
2013-05-29 22:07:00,79.5,75.6,29.82,South,178,10.0,16.0,88,0.00,,---,0.00,VWS V14.01,2013-05-30 03:07:00,
2013-05-29 22:12:00,79.5,75.6,29.83,ESE,118,19.0,19.0,88,0.00,,---,0.00,VWS V14.01,2013-05-30 03:12:00,
2013-05-29 22:17:00,79.5,75.6,29.83,ESE,116,11.0,19.0,88,0.00,,---,0.00,VWS V14.01,2013-05-30 03:17:00,
2013-05-29 22:22:00,79.5,75.6,29.83,ESE,103,8.0,19.0,88,0.00,,---,0.00,VWS V14.01,2013-05-30 03:22:00,
2013-05-29 22:27:00,79.4,75.5,29.83,SE,130,9.0,19.0,88,0.00,,---,0.00,VWS V14.01,2013-05-30 03:27:00,
2013-05-29 22:32:00,79.5,75.6,29.83,SE,146,7.0,19.0,88,0.00,,---,0.00,VWS V14.01,2013-05-30 03:32:00,
2013-05-29 22:38:00,79.5,75.6,29.83,ESE,105,7.0,19.0,88,0.00,,---,0.00,VWS V14.01,2013-05-30 03:38:00,
2013-05-29 22:43:00,79.5,75.6,29.83,ESE,113,7.0,19.0,88,0.00,,---,0.00,VWS V14.01,2013-05-30 03:43:00,
2013-05-29 22:48:00,79.5,75.6,29.83,SSE,165,4.0,19.0,88,0.00,,---,0.00,VWS V14.01,2013-05-30 03:48:00,
2013-05-29 22:53:00,79.5,75.6,29.82,SE,143,13.0,19.0,88,0.00,,---,0.00,VWS V14.01,2013-05-30 03:53:00,
2013-05-29 22:58:00,79.4,75.2,29.83,SE,142,9.0,19.0,87,0.00,,---,0.00,VWS V14.01,2013-05-30 03:58:00,
2013-05-29 23:01:00,79.4,75.2,29.83,East,96,6.0,19.0,87,0.00,,---,0.00,VWS V14.01,2013-05-30 04:01:00,
2013-05-29 23:03:00,79.5,75.6,29.83,East,94,11.0,11.0,88,0.00,,---,0.00,VWS V14.01,2013-05-30 04:03:00,
2013-05-29 23:07:00,79.4,75.2,29.83,SE,134,7.0,17.0,87,0.00,,---,0.00,VWS V14.01,2013-05-30 04:07:00,
2013-05-29 23:12:00,79.4,75.2,29.83,ESE,115,8.0,17.0,87,0.00,,---,0.00,VWS V14.01,2013-05-30 04:12:00,
2013-05-29 23:17:00,79.5,75.6,29.83,East,89,11.0,17.0,88,0.00,,---,0.00,VWS V14.01,2013-05-30 04:17:00,
2013-05-29 23:23:00,79.5,75.6,29.83,ESE,115,10.0,17.0,88,0.00,,---,0.00,VWS V14.01,2013-05-30 04:23:00,
2013-05-29 23:28:00,79.5,75.6,29.84,SE,131,7.0,17.0,88,0.00,,---,0.00,VWS V14.01,2013-05-30 04:28:00,
2013-05-29 23:33:00,79.4,75.9,29.84,SW,221,7.0,17.0,89,0.00,,---,0.00,VWS V14.01,2013-05-30 04:33:00,
2013-05-29 23:38:00,79.4,75.9,29.84,SE,146,8.0,17.0,89,0.00,,---,0.00,VWS V14.01,2013-05-30 04:38:00,
2013-05-29 23:43:00,79.4,75.9,29.85,ESE,118,13.0,17.0,89,0.00,,---,0.00,VWS V14.01,2013-05-30 04:43:00,
2013-05-29 23:48:00,79.4,75.9,29.85,ESE,121,6.0,17.0,89,0.00,,---,0.00,VWS V14.01,2013-05-30 04:48:00,
2013-05-29 23:53:00,79.4,75.9,29.85,SE,146,8.0,17.0,89,0.00,,---,0.00,VWS V14.01,2013-05-30 04:53:00,
2013-05-29 23:58:00,79.4,75.5,29.85,South,170,3.0,17.0,88,0.00,,---,0.00,VWS V14.01,2013-05-30 04:58:00,